Wind_Speed
10 9 8 6 4 4 2 1 1 3 4 5 6 7 7 7 7 8 8 8 8 8 7 6 7 7 7 7 6 6 6 7 7 7 7 6 6 6 6 5 5 4 4 5
11 10 10 8 6 6 5 4 3 3 4 5 6 6 6 5 6 7 7 7 7 7 7 6 6 6 6 6 5 5 5 6 6 7 6 6 5 5 5 5 4 4 4 4
12 12 12 11 10 8 7 5 5 5 5 6 6 7 8 5 6 6 5 5 5 5 5 6 6 6 5 5 5 5 5 5 5 6 6 6 6 5 6 6 5 5 5 5
15 13 13 13 12 11 9 8 7 7 7 7 8 8 6 6 6 5 5 4 4 4 4 4 4 5 5 5 5 4 4 5 5 5 6 5 5 5 6 6 6 5 5 5
16 15 15 14 12 12 11 9 8 9 10 9 7 8 6 5 6 6 4 3 4 3 3 3 3 3 4 4 4 4 4 4 4 4 5 5 5 5 5 5 5 5 5 5
17 16 15 13 12 11 11 11 11 10 10 10 8 8 7 8 7 6 5 4 4 4 2 2 3 2 2 3 4 4 3 3 4 4 4 4 4 5 4 4 4 4 4 5
17 16 14 13 12 12 12 12 12 11 11 10 9 9 9 8 8 6 6 5 4 4 3 2 3 3 2 3 3 3 3 3 3 3 3 4 4 4 4 4 4 4 5 5
18 17 15 14 14 13 13 14 13 12 12 11 10 10 9 9 8 6 6 6 7 6 5 4 4 4 3 3 3 4 4 4 3 3 4 4 4 5 5 4 4 5 5 5
18 17 16 16 15 14 15 16 15 15 13 13 12 12 10 9 8 8 7 8 8 8 7 5 4 5 5 4 5 5 5 5 4 4 5 5 5 5 6 5 5 5 6 6
19 18 18 18 18 17 16 16 16 17 17 15 13 12 11 10 10 10 9 9 10 8 8 7 6 7 6 6 6 7 6 6 6 6 6 6 6 6 7 7 7 7 7 7
20 20 19 20 20 19 18 18 18 18 18 18 17 14 13 12 12 11 10 9 9 10 10 10 8 8 8 8 8 7 7 7 7 7 7 7 7 8 8 8 8 8 9 9
23 23 22 22 21 20 19 19 19 20 19 19 19 16 15 14 14 14 13 12 11 12 13 11 10 9 9 10 9 9 9 9 9 9 9 9 9 9 9 9 9 10 10 11
25 26 25 25 24 22 22 22 22 22 22 21 20 19 17 17 17 16 15 15 14 13 13 11 10 9 9 10 11 10 9 9 10 10 11 12 12 11 11 11 11 12 12 13
29 30 29 28 26 25 24 24 25 25 24 23 22 21 19 18 18 17 18 17 16 16 15 14 12 11 10 11 12 11 11 10 11 11 12 13 13 13 13 13 13 14 14 15
32 32 33 32 30 28 27 26 26 26 25 25 24 22 21 20 19 19 19 19 17 17 16 16 14 13 13 12 12 12 12 12 12 13 14 14 15 15 15 16 16 17 17 17
33 33 33 32 31 30 28 27 27 27 25 25 24 24 22 22 21 22 21 20 18 17 17 17 15 14 14 13 13 13 14 14 14 15 15 16 17 17 18 18 18 18 19 19
33 33 33 33 32 31 30 27 28 29 27 26 26 24 23 22 23 23 23 23 20 18 18 18 17 15 16 16 15 15 15 16 17 17 17 18 18 19 19 20 21 21 22 22
34 34 33 33 33 33 30 29 28 29 28 28 27 25 25 24 23 23 22 21 21 20 20 19 17 16 16 16 17 17 18 18 19 19 19 19 20 21 21 22 23 24 23 23
34 33 34 33 33 32 30 29 28 28 28 27 26 26 25 24 24 24 23 23 23 22 21 20 19 19 18 19 19 18 19 20 20 21 21 21 21 21 21 22 23 24 24 24
35 34 33 33 33 33 30 29 29 29 29 27 26 26 25 25 25 25 25 24 24 23 23 22 21 21 20 19 20 20 20 20 21 22 22 22 22 22 23 23 24 25 24 24
36 36 35 34 34 34 31 30 30 30 30 28 27 26 25 25 24 24 24 25 25 26 25 23 22 22 22 21 21 20 21 22 22 23 24 24 24 23 23 24 25 25 25 25
36 36 36 35 36 35 32 32 31 31 30 30 29 27 27 26 26 26 26 26 26 25 25 25 24 24 22 22 23 23 22 23 23 23 24 24 24 23 23 24 24 24 25 25
36 36 35 35 35 34 33 32 32 32 31 30 30 29 28 27 26 27 28 28 27 25 25 25 25 25 25 24 24 25 25 25 25 25 24 24 24 24 25 25 26 26 26 26
33 34 35 35 35 35 34 33 33 31 30 30 30 30 29 29 28 29 29 28 28 27 27 27 27 26 26 25 26 27 27 27 26 26 25 25 25 26 26 27 27 27 27 27
33 34 35 35 34 35 35 34 34 32 32 31 31 30 30 30 30 31 30 30 30 29 29 28 28 29 28 27 27 28 29 29 28 28 26 27 27 27 28 29 29 29 28 28
33 34 34 35 35 36 35 35 34 33 32 31 31 31 30 31 31 31 31 31 32 32 32 31 30 30 29 29 29 30 31 30 30 29 28 28 29 29 30 30 30 30 29 28
Wind_Direction
198 195 193 191 180 173 187 221 324 339 340 342 336 343 348 360 5 10 9 10 15 13 21 25 28 31 34 36 38 37 35 36 39 41 44 47 48 48 44 41 48 54 51 48
206 197 195 205 209 205 211 230 262 303 312 310 307 317 330 338 353 2 8 12 6 17 22 23 23 25 30 30 31 35 33 32 37 41 41 39 40 41 41 39 47 51 49 42
208 200 202 208 215 218 226 242 271 287 286 297 306 315 320 325 339 351 359 360 0 5 16 15 12 11 21 26 29 31 31 25 28 33 34 30 30 37 43 44 44 46 47 42
212 208 212 217 220 226 237 246 260 268 279 282 292 303 317 321 338 344 0 359 356 2 10 4 1 0 9 16 22 22 25 24 23 25 27 30 30 34 37 41 45 44 38 30
214 215 219 225 226 232 239 244 259 268 272 275 291 309 322 321 338 349 349 339 332 351 355 349 352 352 358 359 1 356 359 7 7 6 12 20 22 24 28 29 32 29 24 19
219 221 221 222 225 228 236 244 257 264 271 278 296 310 321 319 324 332 337 327 322 332 341 324 329 338 348 338 336 337 339 349 347 344 353 4 8 5 3 2 7 9 8 6
220 221 221 225 228 227 231 243 252 258 267 279 293 303 318 316 318 328 327 309 292 304 306 294 291 300 306 312 321 323 321 331 340 342 344 345 346 340 339 336 334 340 346 344
218 215 219 225 231 230 231 240 247 258 269 275 283 290 307 319 317 318 318 310 294 296 298 287 278 269 274 284 301 304 307 315 322 327 323 322 326 327 326 323 321 323 327 329
223 219 221 226 229 231 234 242 249 255 263 270 276 283 295 305 305 306 299 301 296 288 285 272 270 264 263 270 276 282 291 301 304 307 309 307 309 317 320 315 312 312 315 314
228 226 224 225 224 228 236 241 245 249 256 262 269 281 286 290 294 299 289 286 288 286 289 272 259 261 259 267 272 273 282 290 294 296 299 300 302 309 310 307 305 305 306 305
228 231 226 226 226 228 231 234 241 248 252 257 262 267 275 283 291 288 291 292 292 293 288 272 263 258 265 268 270 270 275 284 287 289 290 291 295 298 299 299 298 297 297 298
229 232 233 229 228 231 235 236 238 243 248 255 261 264 268 272 280 282 286 287 286 292 289 283 272 263 266 268 265 266 274 278 278 283 287 285 284 286 289 292 293 293 293 293
229 232 235 232 228 230 233 236 240 244 247 252 258 264 268 273 278 279 281 283 284 289 287 284 275 270 271 267 264 264 266 270 274 279 283 282 282 283 284 287 289 290 291 293
228 231 235 236 234 232 233 235 238 243 247 249 256 265 270 274 279 278 277 280 285 283 279 283 280 273 272 274 274 271 271 271 277 280 283 282 284 285 283 284 287 287 287 290
229 231 234 238 237 234 235 236 236 241 245 250 255 263 269 272 276 276 275 278 282 283 279 280 285 277 276 281 280 276 281 282 281 281 282 281 281 283 283 285 286 286 285 289
231 233 234 236 238 238 237 237 239 241 246 250 253 258 266 269 271 271 271 273 276 278 279 280 281 276 277 278 281 282 281 281 280 279 280 279 279 279 281 280 283 284 284 286
234 235 235 235 237 239 238 240 243 242 246 251 254 258 262 267 269 270 271 270 272 279 280 277 281 279 273 274 278 283 284 284 281 279 278 279 279 279 279 279 280 282 284 285
237 237 237 236 237 239 241 241 245 245 248 250 253 257 260 263 267 271 273 275 280 280 279 276 278 279 277 276 280 282 283 283 282 279 277 278 279 279 278 280 281 281 281 282
239 241 239 237 237 240 240 241 244 247 248 250 253 255 257 261 266 269 273 275 279 281 280 280 282 282 284 283 282 283 283 283 285 283 281 281 282 280 280 281 281 282 283 283
238 238 238 236 235 237 239 241 244 247 248 251 257 257 257 258 262 266 270 276 279 283 279 278 279 280 281 281 278 280 282 283 283 283 281 281 282 281 281 282 282 281 282 282
236 236 236 235 236 239 240 241 244 247 249 251 256 257 257 259 262 267 271 276 277 281 276 273 274 275 275 276 276 278 283 283 282 282 280 278 281 281 282 281 282 283 284 286
236 236 236 236 237 238 240 242 245 250 252 253 255 256 257 260 263 267 271 273 276 276 273 271 272 275 275 276 281 283 283 284 284 284 283 280 280 282 285 285 287 287 288 288
235 236 237 237 238 239 241 243 245 248 251 255 255 254 257 260 263 266 269 270 273 275 274 273 274 276 277 278 280 282 283 285 285 284 284 284 282 283 285 287 288 288 288 288
235 237 237 238 238 239 242 244 245 248 251 255 256 257 258 261 264 267 270 268 269 272 273 273 273 274 277 278 278 280 282 283 283 283 282 282 283 284 285 286 288 289 290 291
233 236 237 238 239 240 243 245 247 251 256 258 257 259 261 262 265 267 267 268 269 269 270 271 274 274 275 276 278 280 281 282 282 281 279 280 283 283 284 285 286 288 289 290
232 234 237 239 241 242 244 245 248 250 253 257 259 259 261 262 264 266 268 269 270 270 269 270 270 271 273 274 276 278 280 281 281 279 279 280 282 283 283 284 286 286 286 287
Height
5921 5923 5923 5924 5924 5925 5925 5925 5926 5926 5925 5925 5924 5924 5923 5922 5921 5921 5919 5918 5917 5916 5915 5914 5913 5912 5911 5910 5909 5908 5908 5907 5906 5905 5903 5902 5901 5900 5900 5899 5898 5897 5897 5896
5920 5921 5922 5922 5922 5923 5923 5924 5925 5925 5924 5924 5923 5923 5922 5921 5921 5920 5919 5918 5917 5915 5915 5914 5913 5912 5911 5910 5910 5909 5908 5907 5906 5905 5904 5903 5902 5901 5900 5899 5898 5897 5897 5896
5917 5919 5919 5920 5921 5922 5922 5923 5924 5924 5923 5923 5922 5921 5921 5920 5919 5918 5918 5917 5916 5915 5914 5913 5913 5912 5911 5910 5910 5909 5908 5907 5906 5905 5904 5903 5902 5901 5900 5899 5898 5897 5897 5896
5914 5915 5916 5917 5918 5920 5921 5921 5922 5922 5922 5921 5921 5920 5919 5918 5917 5917 5916 5916 5915 5914 5913 5913 5912 5912 5911 5910 5910 5909 5908 5907 5906 5905 5904 5903 5903 5902 5900 5899 5898 5898 5897 5896
5911 5912 5913 5915 5917 5917 5918 5919 5920 5920 5920 5920 5919 5919 5918 5916 5916 5915 5915 5914 5914 5913 5912 5912 5912 5911 5910 5910 5909 5909 5908 5907 5906 5905 5904 5903 5903 5902 5901 5900 5899 5898 5897 5896
5908 5909 5911 5912 5914 5915 5916 5917 5917 5918 5918 5918 5918 5917 5917 5916 5915 5914 5913 5912 5912 5911 5911 5911 5911 5910 5910 5909 5909 5908 5908 5907 5906 5905 5904 5903 5902 5901 5901 5900 5899 5898 5897 5896
5904 5906 5908 5909 5910 5912 5914 5915 5915 5915 5915 5915 5915 5914 5915 5914 5913 5912 5911 5910 5910 5909 5909 5909 5909 5909 5909 5908 5908 5907 5907 5906 5905 5904 5904 5903 5902 5901 5900 5899 5898 5897 5896 5895
5900 5903 5905 5906 5907 5909 5910 5911 5913 5913 5913 5913 5912 5912 5913 5912 5911 5910 5909 5908 5907 5907 5907 5907 5908 5908 5907 5907 5906 5906 5905 5905 5904 5903 5903 5902 5901 5900 5899 5898 5897 5896 5895 5894
5895 5899 5901 5902 5904 5905 5907 5908 5909 5910 5909 5909 5909 5909 5910 5909 5909 5908 5907 5906 5905 5905 5904 5905 5905 5906 5906 5905 5905 5904 5904 5903 5902 5902 5901 5900 5900 5899 5898 5897 5896 5895 5894 5893
5891 5894 5896 5898 5900 5901 5903 5904 5905 5906 5906 5906 5906 5906 5907 5907 5906 5906 5904 5903 5903 5902 5902 5902 5902 5903 5903 5903 5903 5902 5902 5901 5900 5900 5900 5899 5898 5897 5897 5895 5895 5894 5892 5891
5885 5888 5891 5893 5895 5897 5899 5900 5901 5901 5902 5902 5902 5905 5904 5904 5903 5903 5902 5901 5901 5900 5900 5900 5900 5900 5901 5901 5900 5900 5899 5899 5898 5898 5897 5897 5896 5895 5894 5893 5892 5892 5890 5889
5880 5883 5885 5888 5891 5892 5894 5895 5896 5897 5897 5897 5897 5902 5900 5900 5900 5899 5899 5898 5898 5898 5898 5897 5897 5897 5897 5897 5897 5896 5896 5895 5895 5895 5894 5894 5893 5892 5891 5890 5890 5889 5888 5886
5875 5877 5880 5883 5887 5888 5888 5890 5891 5892 5892 5892 5893 5897 5896 5896 5895 5895 5895 5894 5894 5894 5894 5893 5893 5893 5893 5893 5893 5892 5892 5892 5892 5891 5891 5890 5889 5889 5888 5887 5886 5885 5884 5883
5869 5871 5874 5877 5879 5882 5883 5884 5885 5886 5887 5887 5889 5890 5891 5890 5890 5890 5890 5890 5890 5890 5890 5889 5889 5889 5889 5889 5888 5887 5888 5888 5888 5887 5887 5886 5886 5885 5884 5883 5882 5881 5880 5878
5862 5865 5867 5870 5873 5875 5877 5878 5880 5881 5882 5883 5884 5885 5885 5886 5886 5886 5886 5886 5885 5886 5885 5885 5885 5884 5884 5884 5884 5884 5884 5884 5884 5884 5883 5882 5882 5881 5880 5879 5878 5876 5875 5874
5855 5858 5861 5864 5866 5869 5870 5872 5874 5876 5876 5877 5878 5879 5880 5880 5880 5880 5881 5881 5881 5881 5881 5880 5880 5880 5880 5880 5880 5880 5880 5880 5879 5879 5878 5877 5877 5876 5875 5874 5872 5871 5869 5869
5848 5851 5854 5858 5860 5862 5864 5867 5868 5869 5871 5872 5873 5875 5875 5875 5875 5875 5875 5875 5876 5875 5875 5875 5875 5875 5875 5875 5875 5875 5875 5874 5873 5873 5873 5872 5871 5870 5869 5868 5867 5865 5864 5863
5841 5844 5847 5850 5854 5855 5860 5861 5862 5863 5864 5866 5867 5868 5869 5870 5870 5870 5870 5870 5870 5870 5870 5869 5869 5869 5870 5869 5869 5869 5868 5868 5868 5867 5866 5866 5865 5864 5863 5862 5860 5859 5858 5856
5833 5837 5839 5842 5845 5847 5852 5854 5856 5857 5858 5859 5861 5862 5863 5863 5864 5864 5864 5864 5865 5865 5864 5864 5863 5864 5864 5864 5864 5863 5862 5862 5861 5861 5860 5859 5858 5858 5856 5855 5854 5852 5851 5850
5825 5828 5832 5834 5837 5840 5845 5847 5849 5852 5852 5854 5854 5856 5857 5858 5858 5859 5859 5858 5858 5858 5858 5857 5857 5858 5858 5858 5858 5857 5856 5855 5855 5854 5854 5853 5852 5851 5850 5848 5847 5845 5844 5842
5816 5819 5823 5826 5829 5832 5837 5840 5842 5845 5846 5848 5848 5849 5850 5851 5852 5853 5852 5852 5852 5851 5851 5851 5851 5851 5852 5852 5851 5850 5850 5849 5848 5847 5846 5846 5844 5844 5842 5841 5840 5838 5837 5836
5808 5811 5815 5819 5822 5827 5829 5832 5835 5836 5838 5840 5841 5842 5843 5845 5845 5845 5846 5845 5845 5843 5843 5843 5844 5844 5843 5844 5844 5842 5842 5842 5841 5840 5839 5838 5837 5836 5835 5834 5833 5831 5830 5828
5800 5804 5808 5812 5816 5819 5821 5824 5826 5828 5830 5832 5833 5835 5837 5837 5838 5838 5839 5839 5838 5837 5837 5837 5837 5837 5837 5837 5837 5837 5836 5835 5834 5833 5832 5831 5829 5829 5828 5827 5826 5824 5823 5821
5792 5795 5800 5803 5807 5810 5813 5816 5818 5820 5822 5824 5826 5827 5829 5830 5831 5831 5831 5831 5831 5831 5830 5831 5831 5831 5831 5831 5830 5830 5829 5828 5827 5826 5825 5824 5823 5822 5821 5819 5818 5817 5816 5814
5785 5789 5792 5795 5798 5802 5805 5808 5810 5813 5815 5816 5818 5819 5821 5822 5823 5823 5823 5823 5823 5824 5824 5824 5823 5823 5823 5822 5822 5821 5820 5820 5819 5818 5817 5817 5816 5815 5814 5812 5811 5810 5808 5806
5778 5781 5784 5787 5791 5794 5797 5800 5802 5804 5806 5808 5809 5811 5812 5813 5814 5815 5814 5814 5814 5814 5815 5815 5815 5815 5814 5814 5813 5813 5812 5811 5810 5809 5808 5808 5808 5807 5805 5804 5802 5801 5800 5798